User: anonymous   Login
Location: Dob?e?
(49.9411°N, 15.1496°E)
Time: 12:01:46
(UTC+00:00)
Language:

STARLINK-1316 - Orbit

View from above orbital plane
View from above orbital plane
View from above satellite
View from above satellite

Ground track
Ground track

The orbit data is extracted from the following two-line orbital elements,

1 45415U 20019BH  20227.25001157 -.00029264  00000-0 -19964-2 0  9991
2 45415  53.0018 265.0729 0001240  88.1398 170.4987 15.05601566 23403
Epoch (UTC): 14 August 2020 06:00:01
Eccentricity: 0.0001240
inclination: 53.0018°
perigee height: 549 km
apogee height: 550 km
right ascension of ascending node: 265.0729°
argument of perigee: 88.1398°
revolutions per day: 15.05601566
mean anomaly at epoch: 170.4987°
orbit number at epoch: 2340

The dashed part of the orbit path shows where the satellite is in the earth's shadow,  

DLR